Flag for U.S.A. Weather past 2 weeks in Santa Barbara, California, U.S.A.

Now
69 °F

Overcast.


Feels Like: 69 °F
Forecast: 60 / 75 °F
Wind: 5 mph from South

Location: Santa Barbara Municipal Airport

Current Time: Sep 21, 2014 at 11:26:17 AM

Latest Report: Sep 21, 2014 at 10:53 AM


Visibility: 10 mi

Pressure: 30.00 "Hg

Humidity: 76%

Dew point: 61 °F

Location of Santa BarbaraLocation

Historic Weather in Santa Barbara — Graph

°F

Santa Barbara temperature yesterday

Maximum temperature yesterday: 76 °F (at 1:53 PM)
Minimum temperature yesterday: 64 °F (at 3:53 AM)
Average temperature yesterday: 68 °F

Past Weeks' High & Low Weather Summary

 TemperatureHumidityPressure
High95 °F (Sep 16, 6:53 PM)94% (Sep 6, 9:00 AM)30.01 "Hg (Sep 6, 9:00 AM)
Low52 °F (Sep 7, 5:53 AM)13% (Sep 16, 6:53 PM)29.66 "Hg (Sep 16, 5:53 PM)
Average70 °F73%29.81 "Hg
* Reported Sep 6 9:00 AM — Sep 21 9:53 AM, Santa Barbara, Weather by CustomWeather, © 2014

Note: Actual official high and low records may vary slightly from our data, if they occured in-between our weather recording intervals... More about our weather records

Advertising

Santa Barbara weather history for previous 24 hours

 ConditionsComfort  
Time TempWeatherWind HumidityBarometerVisibility
9:53 AM
Sep 21
68 °FLow clouds.3 mph78%30.01 "Hg10 mi
8:53 AM67 °FLow clouds.7 mph81%30.00 "Hg10 mi
7:53 AM65 °FPartly sunny.8 mph87%29.98 "Hg10 mi
6:53 AM64 °FLow clouds.6 mph90%29.96 "Hg10 mi
5:53 AM64 °FLow clouds.6 mph90%29.94 "Hg10 mi
4:53 AM63 °FPassing clouds.6 mph93%29.93 "Hg9 mi
3:53 AM63 °FClear.6 mph93%29.92 "Hg9 mi
2:53 AM64 °FPassing clouds.3 mph90%29.92 "Hg9 mi
1:53 AM64 °FClear.5 mph87%29.92 "Hg10 mi
12:53 AM64 °FClear.6 mph87%29.92 "Hg10 mi
11:53 PM
Sep 20
64 °FClear.3 mph87%29.93 "Hg10 mi
10:53 PM65 °FClear.No wind91%29.93 "Hg10 mi
9:53 PM64 °FClear.No wind94%29.92 "Hg10 mi
8:53 PM65 °FClear.No wind87%29.91 "Hg10 mi
7:53 PM64 °FSunny.5 mph84%29.89 "Hg10 mi
6:53 PM69 °FSunny.7 mph73%29.89 "Hg10 mi
5:53 PM71 °FSunny.8 mph68%29.88 "Hg10 mi
4:53 PM73 °FSunny.10 mph66%29.89 "Hg10 mi
3:53 PM74 °FSunny.10 mph64%29.89 "Hg10 mi
2:53 PM75 °FSunny.9 mph62%29.90 "Hg10 mi
1:53 PM76 °FScattered clouds.7 mph62%29.91 "Hg10 mi
12:53 PM73 °FOvercast.6 mph64%29.94 "Hg10 mi
11:53 AM72 °FOvercast.5 mph66%29.95 "Hg10 mi
Weather by CustomWeather, © 2014

See weather overviewHow to use our weather pages